SCP
0 0 0 0 0 0 0 -0 -0 -0 -0 -0 -0 0 0 -0 -0 -0 -0 -0 -0 -0 0 0 -0 -0 -0 -0 -0 -0 -0 -0 -0 -0 -0 -0 -0 -0 0 -0 -0 -0 -0
0 0 0 0 0 0 -0 -0 -0 -0 -0 -0 -0 0 0 -0 0 0 -0 0 0 -0 -0 -0 -0 -0 -0 -0 -0 -0 0 0 0 -0 -0 -0 -0 -0 -0 -0 -0 -0 -0
0 0 0 0 0 0 -0 -0 -0 -0 -0 -0 -0 0 -0 -0 0 -0 -0 -0 -0 -0 -0 -0 -0 -0 -0 -0 -0 0 0 0 0 -0 0 -0 -0 -0 -0 -0 -0 -0 -0
0 0 0 0 0 -0 -0 -0 -0 -0 -0 -0 -0 -0 0 -0 0 0 0 0 0 0 -0 0 0 -0 -0 -0 -0 -0 0 0 0 0 0 0 -0 -0 -0 -0 -0 -0 -0
0 0 0 0 0 -0 -0 -0 -0 0 -0 0 0 -0 -0 -0 0 0 0 0 0 -0 -0 0 -0 0 -0 -0 -0 -0 0 0 0 0 0 -0 0 -0 -0 -0 -0 -0 -0
0 0 0 0 0 -0 -0 -0 -0 0 0 0 -0 -0 -0 -0 0 -0 0 0 0 0 0 0 0 0 0 0 0 0 0 0 0 0 -0 -0 -0 -0 -0 -0 -0 -0 -0
0 0 0 0 0 -0 0 -0 0 -0 -0 0 -0 -0 0 0 0 0 0 0 0 -0 0 0 0 0 0 0 0 0 0 0 0 0 -0 -0 -0 0 -0 -0 -0 -0 -0
0 0 0 0 0 0 -0 0 -0 0 -0 -0 -0 -0 -0 0 0 0 0 0 0 0 0 0 0 0 0 -0 0 -0 0 0 0 0 -0 -0 -0 -0 -0 -0 -0 -0 -0
0 0 0 0 -0 -0 0 0 0 0 0 0 0 -0 0 0 -0 -0 0 0 0 0 0 0 0 0 0 0 0 -0 0 0 -0 -0 -0 -0 -0 -0 -0 -0 -0 -0 -0
0 0 -0 -0 -0 -0 0 0 0 0 0 0 0 0 -0 0 0 0 0 0 0 0 0 0 0 0 -0 0 -0 -0 -0 -0 -0 0 -0 -0 -0 -0 -0 -0 -0 -0 -0
0 0 0 -0 0 0 0 0 0 0 0 0 0 0 0 0 0 -0 -0 0 0 0 0 0 0 0 0 -0 -0 -0 -0 0 -0 0 -0 -0 -0 -0 -0 -0 -0 -0 -0
0 0 -0 -0 -0 0 0 0 0 0 0 0 0 0 0 0 0 0 0 0 0 0 0 0 0 0 -0 -0 -0 -0 0 0 0 0 0 0 0 0 -0 0 0 -0 -0
0 -0 -0 -0 -0 0 0 0 0 0 0 0 0 0 0 0 0 0 0 0 -0 0 0 -0 -0 -0 -0 0 0 0 0 0 -0 0 0 0 0 0 0 -0 -0 -0 0
0 -0 -0 -0 -0 0 0 0 0 0 0 0 0 0 0 0 0 0 0 0 0 0 0 0 0 -0 -0 0 -0 0 -0 0 0 0 -0 -0 -0 -0 -0 0 -0 0 0
0 -0 -0 -0 -0 0 0 0 0 0 0 0 0 0 0 0 0 0 0 0 0 0 0 0 -0 0 0 -0 -0 0 0 0 0 0 0 -0 -0 -0 -0 0 0 0 -0
0 -0 -0 -0 0 0 0 0 0 0 0 0 0 -0 0 0 0 0 0 0 0 0 -0 -0 -0 0 0 0 0 -0 0 -0 0 0 -0 0 0 0 0 0 0 0 -0
-0 -0 -0 0 0 0 0 0 0 0 0 0 0 0 0 0 -0 0 0 0 0 -0 0 -0 0 0 0 0 0 -0 -0 -0 -0 -0 -0 -0 0 -0 0 0 0 0 0
-0 -0 0 0 0 0 0 0 0 0 0 0 0 -0 -0 0 0 0 0 0 0 0 0 0 0 0 -0 -0 -0 0 0 -0 -0 -0 -0 0 0 0 -0 0 0 0 0
0 0 0 0 0 0 0 0 0 0 0 0 0 -0 -0 0 0 0 0 0 0 0 0 0 0 0 -0 0 0 0 -0 -0 0 -0 -0 -0 -0 0 -0 -0 0 0 0
0 0 0 0 0 0 0 0 0 0 0 -0 -0 0 -0 -0 0 0 0 0 0 0 0 0 0 -0 0 0 0 -0 0 -0 -0 -0 -0 -0 -0 -0 -0 -0 0 0 0
-0 0 0 0 0 0 0 0 0 0 0 0 -0 0 -0 0 0 0 0 -0 0 0 0 0 0 0 0 -0 0 -0 0 0 -0 -0 -0 -0 -0 -0 -0 -0 0 0 0
0 0 -0 -0 0 0 0 0 0 0 0 0 -0 -0 -0 -0 -0 0 0 -0 -0 -0 0 0 0 0 -0 -0 0 0 0 0 0 0 -0 0 0 0 0 0 0 0 0
0 0 0 0 0 0 0 0 0 0 0 0 0 -0 -0 -0 -0 0 0 0 0 0 0 0 0 0 0 0 0 0 0 0 0 0 0 0 0 0 0 0 0 0 0
0 0 0 0 0 0 0 0 0 0 0 0 0 -0 -0 -0 -0 0 0 0 -0 -0 0 0 0 0 0 0 0 0 -0 -0 0 0 0 0 0 0 0 0 0 0 0
0 0 0 0 0 0 0 0 0 0 0 0 0 0 0 -0 -0 0 0 0 0 -0 -0 0 0 0 0 0 0 0 0 0 0 0 0 0 0 0 0 0 0 0 0
0 0 0 0 1 0 0 0 0 0 0 0 0 0 0 -0 -0 0 0 0 0 0 -0 0 0 0 0 0 0 0 0 0 0 0 0 0 0 0 0 0 -0 -0 0
Wind_Speed_500mb
39 47 48 43 39 37 33 33 32 29 27 25 21 22 20 14 12 12 13 13 12 9 7 6 8 10 10 12 15 16 18 21 24 23 24 28 24 24 31 35 33 28 29
46 44 47 42 38 36 33 32 29 26 25 24 21 20 16 13 15 17 14 14 15 16 13 9 8 9 13 12 13 16 18 23 21 19 23 23 25 23 28 30 28 27 30
46 42 42 40 36 33 32 29 27 25 22 21 21 20 19 18 18 14 14 20 17 17 17 17 19 18 18 18 19 20 21 23 23 24 29 24 21 23 24 25 27 28 29
44 41 38 39 36 34 32 30 28 28 25 24 24 22 22 21 19 20 20 18 15 17 19 22 22 23 23 23 23 22 21 22 26 28 22 25 20 21 22 24 26 28 27
46 40 39 35 34 32 30 29 28 28 26 25 24 25 24 23 22 21 20 20 16 18 21 24 24 24 27 28 27 24 22 24 29 25 21 21 19 21 24 25 27 28 28
46 38 43 36 32 33 31 30 28 27 27 26 27 28 27 24 23 21 21 20 20 18 21 22 25 26 24 24 26 27 24 24 28 20 20 21 20 20 23 25 24 28 25
45 38 37 35 34 30 27 26 29 29 28 28 27 28 26 27 23 20 19 18 16 18 20 23 28 27 25 25 24 22 21 28 20 21 16 19 17 23 22 23 25 24 22
44 39 36 35 32 29 27 31 31 27 28 27 27 27 27 26 23 22 20 17 17 17 20 23 24 22 28 26 24 24 23 34 21 21 16 19 18 20 21 21 22 23 23
42 39 34 31 29 28 27 32 29 27 27 27 27 28 27 27 24 24 19 17 15 17 22 21 21 23 23 25 25 25 24 34 19 17 16 16 20 19 20 20 21 20 20
41 38 35 32 28 25 25 31 26 27 26 28 28 28 27 27 25 23 22 22 24 25 24 24 22 19 21 24 25 26 28 33 18 21 16 15 19 16 17 18 18 19 19
42 38 34 33 25 31 24 27 27 25 25 24 24 27 27 18 19 17 21 24 28 28 30 28 25 22 22 22 23 26 31 16 16 19 10 20 18 18 17 16 17 15 16
48 42 37 33 31 29 24 26 21 21 18 18 18 20 20 20 21 16 19 22 27 29 30 26 26 30 24 15 17 27 16 16 16 17 12 19 19 16 14 15 15 15 14
50 44 39 35 33 28 26 25 22 20 19 17 23 22 20 17 15 16 10 15 14 23 16 18 20 13 14 15 15 16 15 16 14 15 10 15 17 15 15 13 14 12 11
51 45 41 36 34 30 25 24 24 23 21 18 18 21 18 12 14 15 13 13 17 12 15 16 11 13 13 15 13 15 14 14 12 12 9 14 14 12 13 13 13 11 11
51 47 43 37 36 31 30 25 26 24 22 20 18 19 15 14 14 14 14 9 14 12 10 11 10 12 11 11 11 13 11 14 13 13 5 12 13 12 12 9 8 7 7
52 48 44 39 37 32 29 30 28 25 24 19 16 16 18 15 14 13 13 9 9 11 10 13 10 10 13 11 9 9 12 12 13 16 9 5 10 11 9 9 8 6 5
51 48 46 41 38 35 30 31 27 22 21 17 15 22 19 15 14 15 10 16 11 10 14 9 12 15 14 12 11 9 9 13 9 12 12 8 5 6 6 7 5 5 4
50 50 46 42 40 40 32 31 26 25 22 21 18 15 16 17 18 13 10 6 11 10 13 9 10 18 16 11 13 11 13 10 11 11 11 12 8 8 13 7 2 1 1
52 49 48 46 42 40 36 30 28 30 25 21 20 18 14 15 10 13 9 7 9 12 12 9 10 10 11 13 12 12 11 10 11 8 7 9 5 8 4 12 5 3 4
53 50 49 47 43 43 35 38 28 30 26 23 21 18 17 11 13 10 6 10 10 8 9 11 15 14 17 13 13 11 9 9 8 6 3 5 2 3 1 2 7 8 9
56 53 52 51 48 47 41 38 35 34 30 25 22 22 18 15 12 13 8 7 11 7 12 13 10 15 16 15 12 12 7 10 7 6 4 3 5 2 6 3 1 5 16
62 59 56 54 56 57 43 40 35 32 28 23 22 24 21 16 11 9 12 8 6 9 14 13 15 11 12 13 6 9 15 10 9 6 5 5 5 4 5 6 6 6 4
68 66 62 61 62 63 46 43 38 33 28 27 25 27 21 20 15 12 9 9 6 8 12 10 9 18 12 12 16 4 7 7 10 5 6 5 7 3 4 8 7 7 7
72 66 63 64 66 68 65 48 47 41 35 29 27 25 23 21 18 15 13 9 7 7 11 10 11 15 16 11 13 8 3 9 4 10 4 5 5 4 7 5 8 8 6
70 71 66 64 70 65 72 59 52 47 38 32 29 29 28 24 20 16 14 13 10 6 9 12 13 17 12 13 12 14 8 4 2 4 3 6 3 6 8 10 9 9 12
72 69 69 68 78 80 76 76 64 54 45 40 37 33 29 25 23 25 20 17 16 11 8 11 14 13 17 15 16 15 8 5 4 6 5 4 6 6 8 12 13 14 13
Wind_Direction_500mb
144 144 140 140 144 147 147 146 147 149 149 156 148 144 147 129 115 118 112 105 96 98 115 137 145 143 127 115 105 99 97 94 95 92 92 95 94 90 91 82 82 93 97
144 145 143 143 144 144 143 145 148 150 155 155 150 144 144 136 123 122 112 105 107 104 94 102 125 133 121 132 122 116 108 111 106 97 79 91 101 91 104 115 110 93 96
143 146 144 146 144 144 145 147 149 151 149 148 147 144 135 124 120 115 102 103 89 84 77 93 108 112 124 119 129 121 119 116 122 96 90 90 97 94 97 101 95 94 89
144 144 146 144 145 143 141 140 139 139 134 135 133 132 128 125 118 111 115 100 89 84 95 96 97 102 113 108 120 121 121 116 114 97 102 103 95 101 98 97 94 92 90
143 149 152 144 141 140 137 131 128 130 126 128 127 127 126 124 122 112 111 109 101 93 98 98 108 108 110 100 106 108 114 114 106 87 88 94 82 102 98 94 88 98 108
150 150 147 144 142 137 133 133 129 128 126 125 124 123 130 124 116 116 111 105 99 92 99 100 104 104 110 108 106 97 101 111 85 100 93 106 122 103 101 110 103 102 96
149 152 147 144 140 137 139 135 134 128 124 123 119 122 128 124 122 115 108 103 105 103 101 96 109 101 107 112 105 95 94 103 103 105 116 97 102 106 103 102 101 97 97
151 149 150 144 144 139 142 136 128 127 126 126 124 125 126 126 124 110 103 99 100 108 110 106 103 99 103 97 94 95 96 93 91 93 105 101 105 101 106 104 105 102 95
152 153 150 147 148 142 143 139 133 128 124 121 121 123 123 122 115 111 100 89 91 117 120 121 104 101 97 93 98 95 91 107 102 102 83 88 96 100 106 104 105 103 100
158 157 154 151 148 142 140 140 137 133 129 126 126 127 120 119 113 102 85 88 88 107 117 122 115 105 102 99 95 89 83 78 100 90 100 115 87 104 108 105 109 107 105
164 161 159 154 147 167 147 151 148 143 138 128 128 126 96 117 112 95 124 95 96 99 106 116 112 104 108 96 92 82 80 102 93 102 110 102 93 99 106 105 113 107 107
170 166 164 161 161 147 155 144 146 141 133 143 150 141 130 131 135 129 110 102 102 102 104 108 105 102 99 94 83 73 98 93 100 100 126 108 106 102 104 105 110 113 111
173 168 170 166 164 156 164 152 151 150 155 155 150 139 154 134 124 118 125 104 114 94 96 97 83 98 116 106 91 94 91 90 87 109 128 116 118 109 114 104 118 120 110
176 173 173 171 168 163 164 154 159 161 154 150 159 149 150 129 139 134 127 135 126 134 132 125 126 134 119 106 103 98 91 94 109 111 115 118 123 124 121 108 110 110 111
180 178 177 175 174 171 164 168 164 164 151 165 159 157 152 149 150 136 139 137 133 142 124 113 123 141 133 122 107 103 99 96 100 113 131 125 124 123 136 136 133 138 136
182 182 181 179 180 178 170 174 172 162 177 158 168 175 163 150 152 149 139 143 125 139 166 134 156 141 146 144 123 122 110 94 103 109 130 104 115 125 129 133 138 144 126
185 185 186 182 184 182 181 176 173 179 172 171 164 156 157 152 174 166 171 164 148 151 163 134 140 152 118 130 129 132 117 98 85 100 110 125 43 55 114 124 131 142 144
186 188 186 185 189 188 185 181 179 176 172 165 167 164 166 159 147 135 137 176 142 128 131 153 144 171 133 123 128 112 141 107 102 104 101 105 118 348 18 14 47 210 177
188 190 188 188 191 191 191 187 185 189 174 176 173 171 183 163 161 148 169 190 139 146 144 146 123 160 155 136 133 124 136 126 107 114 110 107 111 112 149 321 321 344 359
192 193 190 191 192 192 194 190 191 189 183 181 183 184 191 186 191 159 177 169 158 163 146 145 139 154 147 145 130 139 132 147 151 139 142 103 159 138 211 231 309 330 4
195 195 194 192 194 193 194 193 194 192 192 195 194 201 196 187 190 183 183 180 170 154 163 157 137 122 151 145 126 132 163 157 163 185 189 207 251 266 260 261 178 236 310
198 198 197 197 198 197 196 193 196 196 202 203 207 202 193 195 196 196 195 224 143 176 171 171 169 155 163 177 199 179 169 147 179 192 208 209 223 252 280 296 249 273 247
201 200 201 200 202 203 195 194 196 198 199 205 206 198 205 206 209 212 233 179 201 155 175 182 181 176 165 178 175 228 161 142 160 191 222 219 230 235 236 266 274 271 275
203 203 203 204 204 206 205 201 201 199 201 204 208 203 201 205 211 228 224 227 188 207 173 180 162 178 156 172 186 197 129 120 308 149 172 229 239 242 251 255 263 267 309
204 205 204 205 209 205 211 203 211 204 209 212 205 209 196 208 212 227 240 244 248 239 229 190 188 166 185 171 172 167 165 162 297 304 176 121 304 268 271 274 256 264 270
205 205 206 206 211 211 213 214 212 213 205 206 207 212 212 216 220 227 238 246 252 234 234 222 204 189 177 191 188 184 188 223 192 212 264 267 317 297 286 273 266 263 261
Wind_Speed_850mb
39 47 48 43 39 37 33 33 32 29 27 25 21 22 20 14 12 12 13 13 12 9 7 6 8 10 10 12 15 16 18 21 24 23 24 28 24 24 31 35 33 28 29
46 44 47 42 38 36 33 32 29 26 25 24 21 20 16 13 15 17 14 14 15 16 13 9 8 9 13 12 13 16 18 23 21 19 23 23 25 23 28 30 28 27 30
46 42 42 40 36 33 32 29 27 25 22 21 21 20 19 18 18 14 14 20 17 17 17 17 19 18 18 18 19 20 21 23 23 24 29 24 21 23 24 25 27 28 29
44 41 38 39 36 34 32 30 28 28 25 24 24 22 22 21 19 20 20 18 15 17 19 22 22 23 23 23 23 22 21 22 26 28 22 25 20 21 22 24 26 28 27
46 40 39 35 34 32 30 29 28 28 26 25 24 25 24 23 22 21 20 20 16 18 21 24 24 24 27 28 27 24 22 24 29 25 21 21 19 21 24 25 27 28 28
46 38 43 36 32 33 31 30 28 27 27 26 27 28 27 24 23 21 21 20 20 18 21 22 25 26 24 24 26 27 24 24 28 20 20 21 20 20 23 25 24 28 25
45 38 37 35 34 30 27 26 29 29 28 28 27 28 26 27 23 20 19 18 16 18 20 23 28 27 25 25 24 22 21 28 20 21 16 19 17 23 22 23 25 24 22
44 39 36 35 32 29 27 31 31 27 28 27 27 27 27 26 23 22 20 17 17 17 20 23 24 22 28 26 24 24 23 34 21 21 16 19 18 20 21 21 22 23 23
42 39 34 31 29 28 27 32 29 27 27 27 27 28 27 27 24 24 19 17 15 17 22 21 21 23 23 25 25 25 24 34 19 17 16 16 20 19 20 20 21 20 20
41 38 35 32 28 25 25 31 26 27 26 28 28 28 27 27 25 23 22 22 24 25 24 24 22 19 21 24 25 26 28 33 18 21 16 15 19 16 17 18 18 19 19
42 38 34 33 25 31 24 27 27 25 25 24 24 27 27 18 19 17 21 24 28 28 30 28 25 22 22 22 23 26 31 16 16 19 10 20 18 18 17 16 17 15 16
48 42 37 33 31 29 24 26 21 21 18 18 18 20 20 20 21 16 19 22 27 29 30 26 26 30 24 15 17 27 16 16 16 17 12 19 19 16 14 15 15 15 14
50 44 39 35 33 28 26 25 22 20 19 17 23 22 20 17 15 16 10 15 14 23 16 18 20 13 14 15 15 16 15 16 14 15 10 15 17 15 15 13 14 12 11
51 45 41 36 34 30 25 24 24 23 21 18 18 21 18 12 14 15 13 13 17 12 15 16 11 13 13 15 13 15 14 14 12 12 9 14 14 12 13 13 13 11 11
51 47 43 37 36 31 30 25 26 24 22 20 18 19 15 14 14 14 14 9 14 12 10 11 10 12 11 11 11 13 11 14 13 13 5 12 13 12 12 9 8 7 7
52 48 44 39 37 32 29 30 28 25 24 19 16 16 18 15 14 13 13 9 9 11 10 13 10 10 13 11 9 9 12 12 13 16 9 5 10 11 9 9 8 6 5
51 48 46 41 38 35 30 31 27 22 21 17 15 22 19 15 14 15 10 16 11 10 14 9 12 15 14 12 11 9 9 13 9 12 12 8 5 6 6 7 5 5 4
50 50 46 42 40 40 32 31 26 25 22 21 18 15 16 17 18 13 10 6 11 10 13 9 10 18 16 11 13 11 13 10 11 11 11 12 8 8 13 7 2 1 1
52 49 48 46 42 40 36 30 28 30 25 21 20 18 14 15 10 13 9 7 9 12 12 9 10 10 11 13 12 12 11 10 11 8 7 9 5 8 4 12 5 3 4
53 50 49 47 43 43 35 38 28 30 26 23 21 18 17 11 13 10 6 10 10 8 9 11 15 14 17 13 13 11 9 9 8 6 3 5 2 3 1 2 7 8 9
56 53 52 51 48 47 41 38 35 34 30 25 22 22 18 15 12 13 8 7 11 7 12 13 10 15 16 15 12 12 7 10 7 6 4 3 5 2 6 3 1 5 16
62 59 56 54 56 57 43 40 35 32 28 23 22 24 21 16 11 9 12 8 6 9 14 13 15 11 12 13 6 9 15 10 9 6 5 5 5 4 5 6 6 6 4
68 66 62 61 62 63 46 43 38 33 28 27 25 27 21 20 15 12 9 9 6 8 12 10 9 18 12 12 16 4 7 7 10 5 6 5 7 3 4 8 7 7 7
72 66 63 64 66 68 65 48 47 41 35 29 27 25 23 21 18 15 13 9 7 7 11 10 11 15 16 11 13 8 3 9 4 10 4 5 5 4 7 5 8 8 6
70 71 66 64 70 65 72 59 52 47 38 32 29 29 28 24 20 16 14 13 10 6 9 12 13 17 12 13 12 14 8 4 2 4 3 6 3 6 8 10 9 9 12
72 69 69 68 78 80 76 76 64 54 45 40 37 33 29 25 23 25 20 17 16 11 8 11 14 13 17 15 16 15 8 5 4 6 5 4 6 6 8 12 13 14 13
Wind_Direction_850mb
144 144 140 140 144 147 147 146 147 149 149 156 148 144 147 129 115 118 112 105 96 98 115 137 145 143 127 115 105 99 97 94 95 92 92 95 94 90 91 82 82 93 97
144 145 143 143 144 144 143 145 148 150 155 155 150 144 144 136 123 122 112 105 107 104 94 102 125 133 121 132 122 116 108 111 106 97 79 91 101 91 104 115 110 93 96
143 146 144 146 144 144 145 147 149 151 149 148 147 144 135 124 120 115 102 103 89 84 77 93 108 112 124 119 129 121 119 116 122 96 90 90 97 94 97 101 95 94 89
144 144 146 144 145 143 141 140 139 139 134 135 133 132 128 125 118 111 115 100 89 84 95 96 97 102 113 108 120 121 121 116 114 97 102 103 95 101 98 97 94 92 90
143 149 152 144 141 140 137 131 128 130 126 128 127 127 126 124 122 112 111 109 101 93 98 98 108 108 110 100 106 108 114 114 106 87 88 94 82 102 98 94 88 98 108
150 150 147 144 142 137 133 133 129 128 126 125 124 123 130 124 116 116 111 105 99 92 99 100 104 104 110 108 106 97 101 111 85 100 93 106 122 103 101 110 103 102 96
149 152 147 144 140 137 139 135 134 128 124 123 119 122 128 124 122 115 108 103 105 103 101 96 109 101 107 112 105 95 94 103 103 105 116 97 102 106 103 102 101 97 97
151 149 150 144 144 139 142 136 128 127 126 126 124 125 126 126 124 110 103 99 100 108 110 106 103 99 103 97 94 95 96 93 91 93 105 101 105 101 106 104 105 102 95
152 153 150 147 148 142 143 139 133 128 124 121 121 123 123 122 115 111 100 89 91 117 120 121 104 101 97 93 98 95 91 107 102 102 83 88 96 100 106 104 105 103 100
158 157 154 151 148 142 140 140 137 133 129 126 126 127 120 119 113 102 85 88 88 107 117 122 115 105 102 99 95 89 83 78 100 90 100 115 87 104 108 105 109 107 105
164 161 159 154 147 167 147 151 148 143 138 128 128 126 96 117 112 95 124 95 96 99 106 116 112 104 108 96 92 82 80 102 93 102 110 102 93 99 106 105 113 107 107
170 166 164 161 161 147 155 144 146 141 133 143 150 141 130 131 135 129 110 102 102 102 104 108 105 102 99 94 83 73 98 93 100 100 126 108 106 102 104 105 110 113 111
173 168 170 166 164 156 164 152 151 150 155 155 150 139 154 134 124 118 125 104 114 94 96 97 83 98 116 106 91 94 91 90 87 109 128 116 118 109 114 104 118 120 110
176 173 173 171 168 163 164 154 159 161 154 150 159 149 150 129 139 134 127 135 126 134 132 125 126 134 119 106 103 98 91 94 109 111 115 118 123 124 121 108 110 110 111
180 178 177 175 174 171 164 168 164 164 151 165 159 157 152 149 150 136 139 137 133 142 124 113 123 141 133 122 107 103 99 96 100 113 131 125 124 123 136 136 133 138 136
182 182 181 179 180 178 170 174 172 162 177 158 168 175 163 150 152 149 139 143 125 139 166 134 156 141 146 144 123 122 110 94 103 109 130 104 115 125 129 133 138 144 126
185 185 186 182 184 182 181 176 173 179 172 171 164 156 157 152 174 166 171 164 148 151 163 134 140 152 118 130 129 132 117 98 85 100 110 125 43 55 114 124 131 142 144
186 188 186 185 189 188 185 181 179 176 172 165 167 164 166 159 147 135 137 176 142 128 131 153 144 171 133 123 128 112 141 107 102 104 101 105 118 348 18 14 47 210 177
188 190 188 188 191 191 191 187 185 189 174 176 173 171 183 163 161 148 169 190 139 146 144 146 123 160 155 136 133 124 136 126 107 114 110 107 111 112 149 321 321 344 359
192 193 190 191 192 192 194 190 191 189 183 181 183 184 191 186 191 159 177 169 158 163 146 145 139 154 147 145 130 139 132 147 151 139 142 103 159 138 211 231 309 330 4
195 195 194 192 194 193 194 193 194 192 192 195 194 201 196 187 190 183 183 180 170 154 163 157 137 122 151 145 126 132 163 157 163 185 189 207 251 266 260 261 178 236 310
198 198 197 197 198 197 196 193 196 196 202 203 207 202 193 195 196 196 195 224 143 176 171 171 169 155 163 177 199 179 169 147 179 192 208 209 223 252 280 296 249 273 247
201 200 201 200 202 203 195 194 196 198 199 205 206 198 205 206 209 212 233 179 201 155 175 182 181 176 165 178 175 228 161 142 160 191 222 219 230 235 236 266 274 271 275
203 203 203 204 204 206 205 201 201 199 201 204 208 203 201 205 211 228 224 227 188 207 173 180 162 178 156 172 186 197 129 120 308 149 172 229 239 242 251 255 263 267 309
204 205 204 205 209 205 211 203 211 204 209 212 205 209 196 208 212 227 240 244 248 239 229 190 188 166 185 171 172 167 165 162 297 304 176 121 304 268 271 274 256 264 270
205 205 206 206 211 211 213 214 212 213 205 206 207 212 212 216 220 227 238 246 252 234 234 222 204 189 177 191 188 184 188 223 192 212 264 267 317 297 286 273 266 263 261